N5PA-2 Weather Reports


time (UTC)temp
C
wind
direction
speed
KPH
gust
KPH
rain 1hr
cm
rain 24hr
cm
rain mn
cm
humidity
%
barometer
mb
20260504190005 25 179 3.2 14.5 0.00 0.00 0.00 46 1014.4
20260504185005 25 204 4.8 11.3 0.00 0.00 0.00 45 1014.5
20260504184505 25 208 3.2 11.3 0.00 0.00 0.00 48 1014.6
20260504184005 25 230 3.2 11.3 0.00 0.00 0.00 47 1014.6
20260504183005 25 211 4.8 12.9 0.00 0.00 0.00 45 1014.6
20260504182504 25 209 4.8 11.3 0.00 0.00 0.00 44 1014.7
20260504181505 25 193 3.2 11.3 0.00 0.00 0.00 49 1014.7
20260504181005 25 214 3.2 11.3 0.00 0.00 0.00 50 1014.9
20260504180505 24 222 4.8 14.5 0.00 0.00 0.00 47 1015.0
20260504180005 24 197 3.2 14.5 0.00 0.00 0.00 49 1015.0
20260504175505 24 219 4.8 16.1 0.00 0.00 0.00 49 1015.0
20260504175005 23 228 6.4 16.1 0.00 0.00 0.00 49 1015.1
20260504174505 24 212 6.4 17.7 0.00 0.00 0.00 46 1015.2
20260504174005 24 198 4.8 17.7 0.00 0.00 0.00 51 1015.2
20260504173505 24 210 3.2 11.3 0.00 0.00 0.00 48 1015.3
20260504173005 24 219 3.2 14.5 0.00 0.00 0.00 51 1015.4
20260504172505 23 202 3.2 14.5 0.00 0.00 0.00 49 1015.5
20260504172005 23 209 3.2 12.9 0.00 0.00 0.00 50 1015.5
20260504171004 23 221 4.8 14.5 0.00 0.00 0.00 54 1015.7
20260504170505 23 190 4.8 14.5 0.00 0.00 0.00 52 1015.7
20260504141004 15 186 0.0 4.8 0.00 0.00 0.00 85 1016.7
20260504140505 15 186 0.0 4.8 0.00 0.00 0.00 85 1016.7
20260504130504 11 0 0.0 0.0 0.00 0.00 0.00 83 1016.6
20260504110503 7 0 0.0 0.0 0.00 0.00 0.00 85 1015.9
20260504100506 8 0 0.0 0.0 0.00 0.00 0.00 85 1015.9
20260504082005 9 0 0.0 0.0 0.00 0.00 0.00 85 1015.9
20260504081005 9 0 0.0 0.0 0.00 0.00 0.00 85 1016.0
20260504080505 9 0 0.0 0.0 0.00 0.00 0.00 85 1016.2
20260504050504 11 0 0.0 0.0 0.00 0.00 0.00 85 1017.2
20260504050006 11 0 0.0 0.0 0.00 0.00 0.00 85 1017.2
20260504045504 11 0 0.0 0.0 0.00 0.00 0.00 85 1017.2
20260504045004 11 0 0.0 0.0 0.00 0.00 0.00 85 1017.2
20260504044504 11 0 0.0 0.0 0.00 0.00 0.00 85 1017.3
20260504044005 11 0 0.0 0.0 0.00 0.00 0.00 85 1017.3
20260504043004 11 0 0.0 0.0 0.00 0.00 0.00 85 1017.4
20260504042504 11 0 0.0 0.0 0.00 0.00 0.00 85 1017.5
20260504042004 12 0 0.0 0.0 0.00 0.00 0.00 85 1017.5
20260504041504 12 0 0.0 0.0 0.00 0.00 0.00 85 1017.6
20260504040504 12 0 0.0 0.0 0.00 0.00 0.00 85 1017.5
20260504040004 12 0 0.0 0.0 0.00 0.00 0.00 85 1017.6
20260504035504 12 0 0.0 0.0 0.00 0.00 0.00 85 1017.5
20260504035004 12 0 0.0 0.0 0.00 0.00 0.00 85 1017.5
20260504034504 12 0 0.0 0.0 0.00 0.00 0.00 85 1017.5
20260504034004 12 0 0.0 0.0 0.00 0.00 0.00 85 1017.5
20260504033504 12 0 0.0 0.0 0.00 0.00 0.00 85 1017.5
20260504033004 12 0 0.0 0.0 0.00 0.00 0.00 85 1017.5
20260504032004 13 0 0.0 0.0 0.00 0.00 0.00 85 1017.6
20260504031004 13 0 0.0 0.0 0.00 0.00 0.00 85 1017.4
20260504030504 13 0 0.0 0.0 0.00 0.00 0.00 85 1017.4
20260504030004 13 0 0.0 0.0 0.00 0.00 0.00 85 1017.4
20260504025504 13 0 0.0 0.0 0.00 0.00 0.00 85 1017.5
20260504025005 13 0 0.0 0.0 0.00 0.00 0.00 85 1017.4
20260504024504 13 0 0.0 0.0 0.00 0.00 0.00 85 1017.4
20260504024004 13 0 0.0 0.0 0.00 0.00 0.00 85 1017.4
20260504023504 13 0 0.0 0.0 0.00 0.00 0.00 85 1017.3
20260504021504 14 0 0.0 0.0 0.00 0.00 0.00 85 1017.1
20260504021004 14 0 0.0 0.0 0.00 0.00 0.00 85 1017.1
20260504020504 14 0 0.0 0.0 0.00 0.00 0.00 85 1017.0
20260504020004 15 0 0.0 0.0 0.00 0.00 0.00 85 1016.9
20260504015504 15 0 0.0 0.0 0.00 0.00 0.00 84 1016.9
20260504015005 15 0 0.0 0.0 0.00 0.00 0.00 84 1016.8
20260504014505 15 0 0.0 0.0 0.00 0.00 0.00 84 1016.8
20260504014005 15 0 0.0 0.0 0.00 0.00 0.00 84 1016.7
20260504013505 15 0 0.0 0.0 0.00 0.00 0.00 84 1016.7
20260504013004 16 78 0.0 1.6 0.00 0.00 0.00 83 1016.7
20260504012505 16 77 0.0 3.2 0.00 0.00 0.00 83 1016.6
20260504012005 16 77 1.6 3.2 0.00 0.00 0.00 83 1016.5
20260504011004 16 77 0.0 1.6 0.00 0.00 0.00 82 1016.4
20260504010505 16 77 1.6 3.2 0.00 0.00 0.00 80 1016.4
20260504010005 16 78 0.0 3.2 0.00 0.00 0.00 79 1016.4
20260504005505 17 0 0.0 0.0 0.00 0.00 0.00 80 1016.4
20260504005005 17 269 0.0 1.6 0.00 0.00 0.00 79 1016.4
20260504003505 18 0 0.0 0.0 0.00 0.00 0.00 75 1016.3
20260504003004 18 0 0.0 0.0 0.00 0.00 0.00 73 1016.4
20260504002505 18 0 0.0 0.0 0.00 0.00 0.00 70 1016.4
20260504002005 18 0 0.0 0.0 0.00 0.00 0.00 68 1016.4
20260504001505 18 246 0.0 1.6 0.00 0.00 0.00 68 1016.4
20260504001005 19 246 0.0 1.6 0.00 0.00 0.00 72 1016.4
20260504000005 20 246 0.0 1.6 0.00 0.00 0.00 68 1016.5
20260503235005 20 0 0.0 0.0 0.00 0.00 0.00 62 1016.4
20260503234005 21 0 0.0 0.0 0.00 0.00 0.00 59 1016.5
20260503233505 21 74 0.0 1.6 0.00 0.00 0.00 58 1016.5
20260503232504 21 74 0.0 1.6 0.00 0.00 0.00 56 1016.7
20260503232005 21 74 0.0 1.6 0.00 0.00 0.00 52 1016.7
20260503231505 22 54 0.0 3.2 0.00 0.00 0.00 54 1016.6
20260503231005 22 46 0.0 3.2 0.00 0.00 0.00 53 1016.6
20260503230505 22 46 0.0 3.2 0.00 0.00 0.00 55 1016.7
20260503230004 22 34 0.0 3.2 0.00 0.00 0.00 57 1016.8
20260503225504 22 33 0.0 1.6 0.00 0.00 0.00 52 1016.8
20260503225005 23 36 0.0 3.2 0.00 0.00 0.00 53 1016.8
20260503224505 23 40 0.0 3.2 0.00 0.00 0.00 47 1016.8
20260503224005 23 37 0.0 3.2 0.00 0.00 0.00 50 1016.9
20260503223005 23 72 0.0 3.2 0.00 0.00 0.00 50 1016.9
20260503222505 23 98 0.0 3.2 0.00 0.00 0.00 48 1016.9
20260503222005 23 94 0.0 3.2 0.00 0.00 0.00 45 1017.0
20260503221504 24 123 0.0 3.2 0.00 0.00 0.00 48 1016.9
20260503221004 24 116 0.0 3.2 0.00 0.00 0.00 48 1016.9
20260503220505 24 68 0.0 3.2 0.00 0.00 0.00 49 1016.9
20260503220005 24 79 0.0 1.6 0.00 0.00 0.00 48 1017.0
20260503215505 25 32 0.0 3.2 0.00 0.00 0.00 47 1017.0
20260503215005 25 29 1.6 4.8 0.00 0.00 0.00 47 1017.1
20260503214504 25 335 1.6 4.8 0.00 0.00 0.00 47 1017.1
20260503214004 25 219 1.6 4.8 0.00 0.00 0.00 44 1017.1
20260503213005 25 58 1.6 4.8 0.00 0.00 0.00 44 1017.3
20260503212504 25 46 1.6 3.2 0.00 0.00 0.00 42 1017.3
20260503212004 25 46 1.6 4.8 0.00 0.00 0.00 44 1017.4
20260503211504 25 36 1.6 4.8 0.00 0.00 0.00 40 1017.5
20260503211005 25 18 1.6 4.8 0.00 0.00 0.00 43 1017.6
20260503210505 25 50 1.6 4.8 0.00 0.00 0.00 45 1017.7
20260503210005 25 65 1.6 4.8 0.00 0.00 0.00 46 1017.8
20260503205504 25 88 1.6 8.0 0.00 0.00 0.00 42 1017.8
20260503205004 25 179 1.6 8.0 0.00 0.00 0.00 45 1017.9
20260503204505 25 193 3.2 8.0 0.00 0.00 0.00 44 1018.0
20260503204005 25 208 3.2 8.0 0.00 0.00 0.00 40 1018.0
20260503203504 25 237 1.6 4.8 0.00 0.00 0.00 42 1018.1
20260503203004 25 321 1.6 3.2 0.00 0.00 0.00 45 1018.2
20260503202505 25 164 1.6 4.8 0.00 0.00 0.00 40 1018.3
20260503202005 25 198 1.6 4.8 0.00 0.00 0.00 41 1018.4
20260503201504 25 226 1.6 6.4 0.00 0.00 0.00 37 1018.5
20260503200504 26 288 1.6 6.4 0.00 0.00 0.00 42 1018.7
20260503200004 26 284 1.6 6.4 0.00 0.00 0.00 41 1018.7
20260503195005 26 6 1.6 4.8 0.00 0.00 0.00 41 1018.8
20260503194504 25 322 1.6 4.8 0.00 0.00 0.00 40 1018.8
20260503194004 25 3 1.6 6.4 0.00 0.00 0.00 44 1019.0
20260503193504 25 167 1.6 8.0 0.00 0.00 0.00 46 1018.9
20260503193004 25 207 1.6 8.0 0.00 0.00 0.00 40 1018.9
20260503192504 25 243 1.6 4.8 0.00 0.00 0.00 47 1019.2
20260503192004 25 246 1.6 6.4 0.00 0.00 0.00 43 1019.2
20260503191504 25 287 1.6 6.4 0.00 0.00 0.00 40 1019.2
20260503191005 25 250 1.6 4.8 0.00 0.00 0.00 43 1019.3
20260503190504 25 142 3.2 6.4 0.00 0.00 0.00 46 1019.3